Location: Erfurt
(50.9688°N, 11.0193°E)
Time: 05:37:39
(UTC+01:00)

ISS - Pass Details

Date: 09 January 2018
Orbit: 402 x 407 km, 51.6° (Epoch: 20 January)

Event Time Altitude Azimuth Distance (km) Brightness Sun altitude
Exits shadow 05:48:59 54° 90° (E) 501 -3.1 -22.2°
Drops below altitude 10° 05:51:37 10° 98° (E) 1,468 0.2 -21.8°
Sets 05:53:42 0° 99° (E) 2,328 1.6 -21.5°
